Monroe, NC

10:06 PM EDT on June 25, 2017 (GMT -0400)
Monroe

Weather History for KEQY - September, 2013

Change the Weather History Date:

Saturday, September 28, 2013

  Actual Average (KCLT) Record (KCLT)
Temperature  
Mean Temperature 64 °F -  
Max Temperature 73 °F 77 °F 93 °F (1954)
Min Temperature 54 °F 58 °F 41 °F (1947)
Degree Days  
Heating Degree Days 2    
Growing Degree Days 14 (Base 50)    
Moisture  
Dew Point 51 °F    
Average Humidity 70    
Maximum Humidity 93    
Minimum Humidity 44    
Precipitation  
Precipitation 0.00 in - - ()
Sea Level Pressure  
Sea Level Pressure 30.22 in    
Wind  
Wind Speed 6 mph (NE)    
Max Wind Speed 14 mph    
Max Gust Speed 22 mph    
Visibility 10 miles    
Events      
Averages and records for this station are not official NWS values.
T = Trace of Precipitation, MM = Missing Value Source: NWS Daily Summary

Daily Weather History Graph

Daily Weather History Graph

Search for Another Location

Airport or City:

Trip Planner

Search our weather history database for the weather conditions in past years. The results will help you decide how hot, cold, wet, or windy it might be!

Date:

Astronomy

Sep. 28, 2013 Rise Set
Actual Time 7:15 AM EDT 7:10 PM EDT
Civil Twilight 6:49 AM EDT 7:35 PM EDT
Nautical Twilight 6:20 AM EDT 8:04 PM EDT
Astronomical Twilight 5:50 AM EDT 8:34 PM EDT
Moon 1:13 AM EDT (9/28) 3:17 PM EDT (9/28)
Length of Visible Light 12h 45m
Length of Day
11h 55m
Last Quarter, 36% of the Moon is Illuminated
Sep 28
Last Quarter
Oct 4
New
Oct 11
First Quarter
Oct 18
Full
Oct 26
Last Quarter

Hourly Weather History & Observations

Time (EDT) Temp. Dew Point Humidity Pressure Visibility Wind Dir Wind Speed Gust Speed Precip Events Conditions
12:53 AM 59.0 °F 54.0 °F 83% 30.20 in 10.0 mi Calm Calm - N/A   Clear
1:53 AM 57.0 °F 54.0 °F 89% 30.20 in 10.0 mi NE 4.6 mph - N/A   Clear
2:53 AM 55.9 °F 53.1 °F 90% 30.19 in 10.0 mi NE 5.8 mph - N/A   Clear
3:53 AM 55.0 °F 52.0 °F 89% 30.19 in 10.0 mi NE 4.6 mph - N/A   Clear
4:53 AM 54.0 °F 52.0 °F 93% 30.20 in 10.0 mi North 3.5 mph - N/A   Clear
5:53 AM 55.0 °F 52.0 °F 89% 30.21 in 10.0 mi NNE 5.8 mph - N/A   Clear
6:53 AM 55.0 °F 52.0 °F 89% 30.22 in 10.0 mi NNE 6.9 mph - N/A   Clear
7:53 AM 55.0 °F 52.0 °F 89% 30.25 in 10.0 mi NNE 3.5 mph - N/A   Clear
8:53 AM 59.0 °F 54.0 °F 83% 30.26 in 10.0 mi NE 10.4 mph - N/A   Clear
9:53 AM 63.0 °F 55.0 °F 75% 30.27 in 10.0 mi NE 11.5 mph - N/A   Clear
10:53 AM 66.0 °F 48.9 °F 54% 30.27 in 10.0 mi ENE 12.7 mph 21.9 mph N/A   Clear
11:53 AM 69.1 °F 50.0 °F 51% 30.27 in 10.0 mi ENE 13.8 mph - N/A   Clear
12:53 PM 72.0 °F 50.0 °F 46% 30.25 in 10.0 mi NE 13.8 mph 19.6 mph N/A   Clear
1:53 PM 72.0 °F 50.0 °F 46% 30.22 in 10.0 mi NE 13.8 mph 21.9 mph N/A   Clear
2:53 PM 73.0 °F 51.1 °F 46% 30.20 in 10.0 mi NNE 13.8 mph 20.7 mph N/A   Partly Cloudy
3:53 PM 73.0 °F 50.0 °F 44% 30.19 in 10.0 mi NE 11.5 mph - N/A   Clear
4:53 PM 72.0 °F 50.0 °F 46% 30.19 in 10.0 mi NNE 11.5 mph 19.6 mph N/A   Clear
5:53 PM 70.0 °F 50.0 °F 49% 30.19 in 10.0 mi NNE 12.7 mph - N/A   Clear
6:53 PM 66.0 °F 50.0 °F 56% 30.20 in 10.0 mi NE 6.9 mph - N/A   Clear
7:53 PM 62.1 °F 50.0 °F 65% 30.21 in 10.0 mi ENE 4.6 mph - N/A   Clear
8:53 PM 59.0 °F 51.1 °F 75% 30.21 in 10.0 mi ENE 3.5 mph - N/A   Clear
9:53 PM 59.0 °F 51.1 °F 75% 30.20 in 10.0 mi NE 4.6 mph - N/A   Clear
10:53 PM 55.9 °F 50.0 °F 80% 30.20 in 10.0 mi NE 4.6 mph - N/A   Clear
11:53 PM 55.0 °F 50.0 °F 83% 30.20 in 10.0 mi NE 5.8 mph - N/A   Clear